Flag for Benin Weather past 2 weeks in Porto Novo, Benin

Now
81 °F

Passing clouds.


Feels Like: 89 °F
Forecast: 78 / 90 °F
Wind: 7 mph from Southwest

Location: Cotonou Airport

Current Time: Dec 21, 2014 at 3:41:39 AM

Latest Report: Dec 21, 2014 at 3:00 AM


Visibility: 5 mi

Pressure: 29.83 "Hg

Humidity: 100%

Dew point: 81 °F

Location of Porto NovoLocation

Historic Weather in Porto Novo — Graph

°F

Porto Novo temperature yesterday

Maximum temperature yesterday: 90 °F (at 2:00 PM)
Minimum temperature yesterday: 77 °F (at 6:00 AM)
Average temperature yesterday: 83 °F

Past Weeks' High & Low Weather Summary

 TemperatureHumidityPressure
High90 °F (Dec 8, 2:00 PM)100% (Dec 6, 2:00 AM)29.92 "Hg (Dec 6, 2:00 AM)
Low75 °F (Dec 13, 12:00 PM)49% (Dec 14, 1:00 PM)29.74 "Hg (Dec 8, 5:00 PM)
Average83 °F91%29.83 "Hg
* Reported Dec 6 2:00 AM — Dec 21 2:00 AM, Porto Novo, Weather by CustomWeather, © 2014

Note: Actual official high and low records may vary slightly from our data, if they occured in-between our weather recording intervals... More about our weather records

Advertising

Porto Novo weather history for previous 24 hours

 ConditionsComfort  
Time TempWeatherWind HumidityBarometerVisibility
2:00 AM
Dec 21
81 °FPassing clouds.8 mph100%29.86 "Hg5 mi
1:00 AM81 °FPassing clouds.8 mph100%29.86 "Hg5 mi
12:00 AM82 °FPassing clouds.10 mph94%29.89 "Hg5 mi
11:00 PM
Dec 20
82 °FPassing clouds.7 mph94%29.89 "Hg5 mi
10:00 PM82 °FPassing clouds.8 mph94%29.89 "Hg5 mi
9:00 PM82 °FPassing clouds.9 mph94%29.89 "Hg5 mi
8:00 PM82 °FPassing clouds.8 mph89%29.86 "Hg5 mi
7:00 PM82 °FPassing clouds.9 mph89%29.83 "Hg5 mi
6:00 PM84 °FScattered clouds.9 mph89%29.80 "Hg5 mi
5:00 PM86 °FScattered clouds.12 mph84%29.80 "Hg5 mi
4:00 PM88 °FScattered clouds.10 mph79%29.80 "Hg5 mi
3:00 PM88 °FScattered clouds.10 mph84%29.83 "Hg5 mi
2:00 PM90 °FScattered clouds.9 mph75%29.86 "Hg5 mi
1:00 PM88 °FScattered clouds.9 mph79%29.89 "Hg5 mi
12:00 PM88 °FScattered clouds.9 mph79%29.89 "Hg5 mi
11:00 AM88 °FScattered clouds.9 mph79%29.92 "Hg5 mi
10:00 AM84 °FFog.5 mph94%29.92 "Hg2 mi
9:00 AM81 °FFog.5 mph100%29.89 "Hg2 mi
8:00 AM77 °FFog.1 mph100%29.89 "Hg2 mi
7:00 AM77 °FFog.3 mph100%29.86 "Hg2 mi
6:00 AM77 °FPassing clouds.3 mph100%29.86 "Hg4 mi
5:00 AM79 °FPassing clouds.3 mph100%29.83 "Hg5 mi
4:00 AM81 °FPassing clouds.7 mph100%29.83 "Hg5 mi
3:00 AM81 °FPassing clouds.8 mph100%29.83 "Hg5 mi
Weather by CustomWeather, © 2014

See weather overviewHow to use our weather pages